CARTOSAT-2B

Last updated on Mon Sep 07 2026 00:02:45 GMT+0000 (Coordinated Universal Time)

1 36795U 10035A 26249.61191858 -.00000007 00000+0 62577-5 0 9990 2 36795 97.9884 299.6084 0010161 291.9860 68.0271 14.78616396871886
UTC large
Height (km)
Speed (km/s)
/
Latitude / Longitude
Inclination (degrees)
Orbital Period (minutes)
Azimuth
Elevation
Range (km)
Doppler Factor

Next 0 passes for location: London (51.5072 / 0.1276)

No passes found over London.
CARTOSAT-2B